Location: Baix
(44.7118°N, 4.7648°E)
Time: 01:49:34
(UTC+00:00)

ERBS - Pass Details

Date: 07 August 2020
Orbit: 412 x 421 km, 57.0° (Epoch: 19 September)

Event Time Altitude Azimuth Distance (km) Brightness Sun altitude
Rises 01:22:42 0° 316° (NW) 2,354 6.3 -25.2°
Reaches altitude 10° 01:24:57 10° 327° (NNW) 1,488 5.4 -25.0°
Maximum altitude 01:27:57 31° 32° (NNE) 759 4.1 -24.8°
Drops below altitude 10° 01:30:56 10° 96° (E) 1,482 5.2 -24.5°
Sets 01:33:09 0° 107° (ESE) 2,342 6.2 -24.3°
